Kimball, NE

11:20 PM MST on February 21, 2017 (GMT -0700)
Kimball Municipal-Arraj

Weather History for KIBM - June, 2014

Change the Weather History Date:

Thursday, June 12, 2014

  Actual Average (KSNY) Record (KSNY)
Temperature  
Mean Temperature 58 °F -  
Max Temperature 68 °F 76 °F 99 °F (1952)
Min Temperature 47 °F 48 °F 32 °F (2008)
Degree Days  
Heating Degree Days 8    
Growing Degree Days 8 (Base 50)    
Moisture  
Dew Point 45 °F    
Average Humidity 66    
Maximum Humidity 92    
Minimum Humidity 42    
Precipitation  
Precipitation 0.00 in - - ()
Sea Level Pressure  
Sea Level Pressure 30.15 in    
Wind  
Wind Speed 6 mph (ESE)    
Max Wind Speed 15 mph    
Max Gust Speed 21 mph    
Visibility 10 miles    
Events      
Averages and records for this station are not official NWS values.
T = Trace of Precipitation, MM = Missing Value Source: NWS Daily Summary

Daily Weather History Graph

Daily Weather History Graph

Search for Another Location

Airport or City:

Trip Planner

Search our weather history database for the weather conditions in past years. The results will help you decide how hot, cold, wet, or windy it might be!

Date:

Astronomy

Jun. 12, 2014 Rise Set
Actual Time 6:21 AM CDT 9:27 PM CDT
Civil Twilight 5:47 AM CDT 10:01 PM CDT
Nautical Twilight 5:04 AM CDT 10:44 PM CDT
Astronomical Twilight 4:13 AM CDT 11:35 PM CDT
Moon 9:01 PM CDT (6/12) 6:05 AM CDT (6/12)
Length of Visible Light 16h 13m
Length of Day
15h 06m
Full, 100% of the Moon is Illuminated
Jun 12
Full
Jun 12
Full
Jun 19
Last Quarter
Jun 27
New
Jul 5
First Quarter

Hourly Weather History & Observations

Time (CDT) Temp. Dew Point Humidity Pressure Visibility Wind Dir Wind Speed Gust Speed Precip Events Conditions
12:20 AM 52.0 °F 46.4 °F 81% 30.11 in 10.0 mi North 4.6 mph - N/A   Scattered Clouds
12:35 AM 50.9 °F 46.0 °F 83% 30.11 in 10.0 mi North 6.9 mph - N/A   Clear
12:55 AM 51.4 °F 45.5 °F 80% 30.11 in 10.0 mi NNW 4.6 mph - N/A   Clear
1:15 AM 50.2 °F 45.1 °F 83% 30.12 in 10.0 mi North 4.6 mph - N/A   Clear
1:35 AM 50.2 °F 45.3 °F 83% 30.12 in 10.0 mi NNE 6.9 mph - N/A   Clear
1:55 AM 49.5 °F 45.9 °F 87% 30.12 in 10.0 mi NNE 4.6 mph - N/A   Clear
2:15 AM 48.6 °F 45.7 °F 90% 30.13 in 10.0 mi NNE 4.6 mph - N/A   Clear
2:35 AM 47.8 °F 45.5 °F 92% 30.13 in 10.0 mi ENE 3.5 mph - N/A   Mostly Cloudy
2:55 AM 49.5 °F 46.4 °F 89% 30.15 in 10.0 mi ENE 8.1 mph - N/A   Overcast
3:15 AM 49.8 °F 45.7 °F 86% 30.15 in 10.0 mi NE 6.9 mph - N/A   Overcast
3:35 AM 49.6 °F 46.2 °F 88% 30.15 in 10.0 mi ENE 4.6 mph - N/A   Overcast
3:55 AM 49.5 °F 45.5 °F 86% 30.16 in 10.0 mi ENE 6.9 mph - N/A   Overcast
4:15 AM 49.1 °F 44.8 °F 85% 30.16 in 10.0 mi ENE 3.5 mph - N/A   Overcast
4:35 AM 49.1 °F 44.8 °F 85% 30.16 in 10.0 mi NE 4.6 mph - N/A   Overcast
5:15 AM 48.6 °F 45.1 °F 88% 30.16 in 10.0 mi ENE 4.6 mph - N/A   Overcast
5:35 AM 48.4 °F 45.5 °F 90% 30.16 in 10.0 mi Calm Calm - N/A   Overcast
5:55 AM 48.6 °F 45.5 °F 89% 30.16 in 10.0 mi Calm Calm - N/A   Overcast
6:15 AM 48.6 °F 45.3 °F 89% 30.16 in 10.0 mi Calm Calm - N/A   Overcast
6:35 AM 48.7 °F 44.8 °F 86% 30.17 in 10.0 mi Calm Calm - N/A   Overcast
6:55 AM 48.7 °F 44.8 °F 86% 30.19 in 10.0 mi Calm Calm - N/A   Overcast
7:15 AM 49.1 °F 44.2 °F 83% 30.19 in 10.0 mi Calm Calm - N/A   Overcast
7:35 AM 49.3 °F 43.5 °F 81% 30.19 in 10.0 mi Calm Calm - N/A   Overcast
8:00 AM 50.0 °F 42.1 °F 74% 30.20 in 10.0 mi Calm Calm - N/A   Overcast
8:15 AM 50.4 °F 41.2 °F 71% 30.20 in 10.0 mi NE 3.5 mph - N/A   Overcast
8:35 AM 50.9 °F 40.6 °F 68% 30.20 in 10.0 mi ENE 5.8 mph - N/A   Overcast
8:55 AM 51.1 °F 40.8 °F 68% 30.21 in 10.0 mi ENE 3.5 mph - N/A   Mostly Cloudy
9:35 AM 52.7 °F 41.9 °F 67% 30.22 in 10.0 mi SE 3.5 mph - N/A   Mostly Cloudy
9:55 AM 53.8 °F 43.0 °F 67% 30.22 in 10.0 mi SE 4.6 mph - N/A   Overcast
10:15 AM 53.4 °F 42.1 °F 65% 30.23 in 10.0 mi SE 4.6 mph - N/A   Overcast
10:35 AM 55.0 °F 42.8 °F 63% 30.22 in 10.0 mi East 3.5 mph - N/A   Overcast
10:55 AM 56.7 °F 44.2 °F 63% 30.22 in 10.0 mi South 4.6 mph - N/A   Mostly Cloudy
11:15 AM 57.4 °F 44.8 °F 63% 30.22 in 10.0 mi SE 5.8 mph - N/A   Scattered Clouds
11:35 AM 58.6 °F 44.6 °F 60% 30.21 in 10.0 mi South 5.8 mph - N/A   Mostly Cloudy
11:55 AM 58.5 °F 45.7 °F 62% 30.20 in 10.0 mi South 6.9 mph - N/A   Overcast
12:15 PM 60.1 °F 45.5 °F 59% 30.20 in 10.0 mi South 8.1 mph - N/A   Mostly Cloudy
12:35 PM 61.0 °F 45.5 °F 57% 30.20 in 10.0 mi South 9.2 mph - N/A   Mostly Cloudy
12:55 PM 60.8 °F 45.5 °F 57% 30.19 in 10.0 mi SSE 8.1 mph - N/A   Mostly Cloudy
1:15 PM 62.4 °F 44.8 °F 52% 30.19 in 10.0 mi SSE 8.1 mph - N/A   Mostly Cloudy
1:35 PM 61.9 °F 44.4 °F 53% 30.18 in 10.0 mi SSE 11.5 mph - N/A   Scattered Clouds
1:55 PM 62.4 °F 43.7 °F 50% 30.18 in 10.0 mi SSE 9.2 mph - N/A   Scattered Clouds
2:15 PM 63.5 °F 44.4 °F 50% 30.17 in 10.0 mi South 6.9 mph - N/A   Mostly Cloudy
2:35 PM 65.3 °F 43.9 °F 46% 30.17 in 10.0 mi SE 6.9 mph 10.4 mph N/A   Scattered Clouds
2:55 PM 64.4 °F 40.6 °F 42% 30.16 in 10.0 mi SSE 6.9 mph - N/A   Clear
3:15 PM 65.5 °F 43.7 °F 45% 30.16 in 10.0 mi SSE 8.1 mph - N/A   Scattered Clouds
3:35 PM 63.0 °F 43.3 °F 49% 30.16 in 10.0 mi SE 10.4 mph - N/A   Overcast
3:55 PM 66.6 °F 45.0 °F 46% 30.15 in 10.0 mi SSE 9.2 mph 16.1 mph N/A   Scattered Clouds
4:15 PM 65.3 °F 45.0 °F 48% 30.14 in 10.0 mi SSE 9.2 mph - N/A   Mostly Cloudy
4:35 PM 63.5 °F 45.0 °F 51% 30.14 in 10.0 mi SSE 10.4 mph - N/A   Mostly Cloudy
4:55 PM 64.6 °F 44.2 °F 48% 30.13 in 10.0 mi SE 10.4 mph 16.1 mph N/A   Mostly Cloudy
5:15 PM 65.7 °F 44.8 °F 47% 30.13 in 10.0 mi SE 6.9 mph 17.3 mph N/A   Mostly Cloudy
5:35 PM 66.6 °F 44.8 °F 45% 30.12 in 10.0 mi SE 9.2 mph 17.3 mph N/A   Mostly Cloudy
5:55 PM 65.5 °F 45.0 °F 47% 30.12 in 10.0 mi SE 9.2 mph - N/A   Mostly Cloudy
6:15 PM 68.0 °F 46.0 °F 45% 30.12 in 10.0 mi ESE 10.4 mph 17.3 mph N/A   Mostly Cloudy
6:35 PM 67.1 °F 46.2 °F 47% 30.11 in 10.0 mi SE 9.2 mph - N/A   Scattered Clouds
6:55 PM 67.1 °F 45.9 °F 46% 30.10 in 10.0 mi SSE 13.8 mph - N/A   Scattered Clouds
7:15 PM 66.4 °F 45.5 °F 47% 30.10 in 10.0 mi SE 9.2 mph - N/A   Clear
7:35 PM 66.0 °F 45.3 °F 47% 30.10 in 10.0 mi ESE 12.7 mph 20.7 mph N/A   Clear
7:55 PM 65.3 °F 45.0 °F 48% 30.10 in 10.0 mi ESE 12.7 mph - N/A   Clear
8:15 PM 64.2 °F 45.3 °F 50% 30.10 in 10.0 mi ESE 13.8 mph 18.4 mph N/A   Clear
8:35 PM 63.1 °F 46.0 °F 54% 30.10 in 10.0 mi ESE 13.8 mph 18.4 mph N/A   Clear
8:55 PM 61.5 °F 46.2 °F 57% 30.10 in 10.0 mi ESE 11.5 mph - N/A   Clear
9:15 PM 60.1 °F 46.4 °F 61% 30.09 in 10.0 mi ESE 10.4 mph - N/A   Clear
9:35 PM 58.5 °F 46.6 °F 65% 30.09 in 10.0 mi ESE 9.2 mph - N/A   Clear
9:55 PM 57.0 °F 46.8 °F 69% 30.09 in 10.0 mi ESE 8.1 mph - N/A   Clear
10:15 PM 55.6 °F 47.3 °F 74% 30.10 in 10.0 mi SE 8.1 mph - N/A   Clear
10:35 PM 55.9 °F 46.4 °F 70% 30.11 in 10.0 mi SE 10.4 mph - N/A   Clear
10:55 PM 56.3 °F 45.7 °F 68% 30.11 in 10.0 mi SE 11.5 mph - N/A   Clear
11:15 PM 55.8 °F 45.3 °F 68% 30.11 in 10.0 mi SE 11.5 mph - N/A   Clear
11:35 PM 55.0 °F 44.8 °F 68% 30.09 in 10.0 mi SE 12.7 mph - N/A   Clear
11:55 PM 56.3 °F 43.7 °F 63% 30.09 in 10.0 mi SE 15.0 mph 20.7 mph N/A   Clear